TAP74 LMML-LPPT

Flight info

Callsign TAP74
Flight time N/A
Altitude 36000
Route GZO M978 ASDAX DCT DOBIX DCT SONAK UM978 MORJA UA411 ANB UM134 LUXUR/N0457F350 M134 OLMIR/N0452F370 M134 VLC/N0367F130 N733 CJN N975 CCS DCT UPULO
Aircraft A320/M-SDE3FGHIRWY/LB1

Departure

Time 2026-04-30 12:19
Airport Malta International Airport (LMML)

Arrival

Time N/A
Airport Lisbon Humberto Delgado Airport (LPPT)
Time Latitude Longitude Altitude Speed Heading
2026-04-30 12:09 35.84868 14.49395 258 ft 2 kts 359°
2026-04-30 12:10 35.84842 14.49396 258 ft 4 kts 349°
2026-04-30 12:10 35.84821 14.49407 258 ft 1 kts 314°
2026-04-30 12:10 35.84820 14.49408 258 ft 2 kts 314°
2026-04-30 12:11 35.84852 14.49369 258 ft 26 kts 314°
2026-04-30 12:11 35.84884 14.49328 258 ft 0 kts 314°
2026-04-30 12:11 35.84898 14.49311 258 ft 7 kts 315°
2026-04-30 12:11 35.84927 14.49267 258 ft 9 kts 301°
2026-04-30 12:12 35.84938 14.49202 258 ft 7 kts 261°
2026-04-30 12:12 35.84913 14.49165 258 ft 5 kts 225°
2026-04-30 12:12 35.84897 14.49129 258 ft 8 kts 258°
2026-04-30 12:12 35.84926 14.49064 258 ft 8 kts 315°
2026-04-30 12:13 35.84958 14.49014 258 ft 7 kts 299°
2026-04-30 12:13 35.84974 14.48971 259 ft 4 kts 282°
2026-04-30 12:13 35.84989 14.48908 258 ft 15 kts 286°
2026-04-30 12:13 35.85005 14.48838 259 ft 0 kts 285°
2026-04-30 12:16 35.85008 14.48822 260 ft 10 kts 285°
2026-04-30 12:16 35.85045 14.48681 264 ft 17 kts 295°
2026-04-30 12:16 35.85101 14.48555 270 ft 16 kts 307°
2026-04-30 12:16 35.85192 14.48439 272 ft 24 kts 314°
2026-04-30 12:17 35.85458 14.48109 272 ft 40 kts 315°
2026-04-30 12:17 35.85573 14.47980 272 ft 2 kts 331°
2026-04-30 12:17 35.85569 14.47972 275 ft 1 kts 233°
2026-04-30 12:18 35.85552 14.47992 272 ft 6 kts 133°
2026-04-30 12:18 35.85525 14.48024 272 ft 7 kts 134°
2026-04-30 12:18 35.85359 14.48231 272 ft 69 kts 134°
2026-04-30 12:18 35.84873 14.48832 259 ft 127 kts 134°
2026-04-30 12:19 35.84139 14.49744 303 ft 167 kts 134°
2026-04-30 12:19 35.83352 14.50706 1032 ft 157 kts 134°
2026-04-30 12:19 35.82461 14.51509 1607 ft 164 kts 155°
2026-04-30 12:19 35.81291 14.51868 1894 ft 187 kts 181°
2026-04-30 12:20 35.79994 14.51414 2202 ft 207 kts 218°
2026-04-30 12:20 35.79162 14.49925 2485 ft 225 kts 260°
2026-04-30 12:20 35.79352 14.47966 2807 ft 245 kts 298°
2026-04-30 12:20 35.80397 14.46265 3338 ft 258 kts 314°
2026-04-30 12:21 35.81730 14.44762 4135 ft 261 kts 319°
2026-04-30 12:21 35.83137 14.43335 5014 ft 263 kts 320°
2026-04-30 12:21 35.84558 14.41904 5896 ft 264 kts 319°
2026-04-30 12:21 35.85969 14.40438 6720 ft 266 kts 318°
2026-04-30 12:22 35.87375 14.38930 7513 ft 268 kts 317°
2026-04-30 12:22 35.88774 14.37393 8308 ft 270 kts 317°
2026-04-30 12:22 35.90175 14.35832 9118 ft 272 kts 316°
2026-04-30 12:22 35.91581 14.34252 9920 ft 274 kts 316°
2026-04-30 12:23 35.93015 14.32634 10384 ft 289 kts 316°
2026-04-30 12:23 35.94533 14.30916 10537 ft 312 kts 316°
2026-04-30 12:23 35.96187 14.29042 10662 ft 334 kts 316°
2026-04-30 12:23 35.97946 14.27049 10922 ft 349 kts 316°
2026-04-30 12:24 35.99754 14.25011 11480 ft 354 kts 316°
2026-04-30 12:24 36.01577 14.22943 12123 ft 357 kts 314°
2026-04-30 12:24 36.03159 14.20578 12788 ft 358 kts 302°
2026-04-30 12:24 36.04316 14.17850 13459 ft 360 kts 291°
2026-04-30 12:25 36.05064 14.14889 14049 ft 362 kts 286°
2026-04-30 12:25 36.05750 14.11884 14611 ft 364 kts 286°
2026-04-30 12:25 36.06441 14.08868 15154 ft 367 kts 286°
2026-04-30 12:25 36.07144 14.05819 15681 ft 369 kts 286°
2026-04-30 12:26 36.07851 14.02754 16211 ft 371 kts 286°
2026-04-30 12:26 36.08560 13.99679 16718 ft 374 kts 286°
2026-04-30 12:26 36.09276 13.96579 17229 ft 376 kts 286°
2026-04-30 12:26 36.09987 13.93497 17728 ft 379 kts 287°
2026-04-30 12:27 36.10711 13.90353 18229 ft 381 kts 287°
2026-04-30 12:27 36.11439 13.87197 18665 ft 383 kts 287°
2026-04-30 12:27 36.12172 13.84013 19098 ft 385 kts 287°
2026-04-30 12:27 36.12905 13.80819 19525 ft 387 kts 287°
2026-04-30 12:28 36.13640 13.77608 19952 ft 389 kts 287°
2026-04-30 12:28 36.14378 13.74379 20378 ft 391 kts 287°
2026-04-30 12:28 36.15117 13.71137 20795 ft 392 kts 287°
2026-04-30 12:28 36.15368 13.70034 20932 ft 393 kts 287°